Flag for Hong Kong Weather past 2 weeks in Kowloon, Hong Kong

68 °F

Passing clouds.

Feels Like: 68 °F
Forecast: 66 / 75 °F
Wind: 13 mph from East

Location: National Airport

Current Time: Nov 27, 2015 at 7:12:41 PM

Latest Report: Nov 27, 2015 at 6:30 PM

Visibility: N/A

Pressure: 30.15 "Hg

Humidity: 56%

Dew point: 52 °F

Location of KowloonLocation

Historic Weather in Kowloon — Graph


Kowloon temperature yesterday

Maximum temperature yesterday: 72 °F (at 2:30 PM)
Minimum temperature yesterday: 59 °F (at 4:00 AM)
Average temperature yesterday: 65 °F

Past Weeks' High & Low Weather Summary

High88 °F (Nov 19, 1:00 PM)94% (Nov 13, 11:30 AM)30.24 "Hg (Nov 13, 11:30 AM)
Low59 °F (Nov 26, 4:00 AM)22% (Nov 26, 2:30 PM)29.86 "Hg (Nov 16, 2:30 PM)
Average77 °F70%30.01 "Hg
* Reported Nov 12 6:00 PM — Nov 27 6:00 PM, Kowloon, Weather by CustomWeather, © 2015

Note: Actual official high and low records may vary slightly from our data, if they occured in-between our weather recording intervals... More about our weather records


Kowloon weather history for previous 24 hours

Time TempWeatherWind HumidityBarometerVisibility
6:00 PM
Fri, Nov 27
68 °FPassing clouds.10 mph53%30.15 "HgN/A
5:30 PM70 °FPassing clouds.9 mph50%30.15 "HgN/A
5:00 PM70 °FPassing clouds.12 mph46%30.15 "HgN/A
4:30 PM70 °FPassing clouds.10 mph46%30.15 "HgN/A
4:00 PM70 °FPassing clouds.9 mph46%30.15 "HgN/A
2:30 PM70 °FScattered clouds.9 mph43%30.15 "HgN/A
2:00 PM70 °FScattered clouds.7 mph40%30.15 "HgN/A
1:30 PM70 °FScattered clouds.7 mph40%30.15 "HgN/A
1:00 PM70 °FPassing clouds.6 mph40%30.18 "HgN/A
12:00 PM70 °FPassing clouds.10 mph38%30.21 "HgN/A
11:30 AM68 °FSunny.12 mph40%30.21 "Hg10 mi
11:00 AM68 °FPassing clouds.3 mph35%30.24 "HgN/A
10:30 AM64 °FPassing clouds.7 mph40%30.24 "HgN/A
10:00 AM64 °FPassing clouds.5 mph37%30.24 "HgN/A
9:30 AM63 °FPassing clouds.5 mph39%30.24 "HgN/A
9:00 AM63 °FPassing clouds.8 mph39%30.24 "HgN/A
8:30 AM61 °FSunny.8 mph42%30.24 "Hg10 mi
8:00 AM61 °FSunny.14 mph42%30.21 "Hg10 mi
7:30 AM59 °FPassing clouds.17 mph42%30.21 "HgN/A
7:00 AM59 °FPassing clouds.17 mph42%30.21 "HgN/A
6:00 AM59 °FPassing clouds.17 mph45%30.18 "HgN/A
5:30 AM59 °FPassing clouds.18 mph45%30.18 "HgN/A
5:00 AM59 °FPassing clouds.18 mph45%30.18 "HgN/A
4:30 AM59 °FPassing clouds.17 mph45%30.18 "HgN/A
4:00 AM59 °FPassing clouds.18 mph45%30.18 "HgN/A
3:30 AM59 °FPassing clouds.15 mph45%30.18 "HgN/A
3:00 AM61 °FPassing clouds.16 mph39%30.18 "HgN/A
2:30 AM61 °FPassing clouds.12 mph42%30.18 "HgN/A
2:00 AM61 °FClear.15 mph42%30.15 "Hg10 mi
1:30 AM63 °FClear.16 mph39%30.18 "Hg10 mi
1:00 AM63 °FPassing clouds.18 mph39%30.18 "HgN/A
12:30 AM63 °FPassing clouds.18 mph37%30.18 "HgN/A
12:00 AM64 °FPassing clouds.18 mph37%30.18 "HgN/A
11:30 PM
Thu, Nov 26
64 °FPassing clouds.21 mph34%30.18 "HgN/A
11:00 PM64 °FPassing clouds.18 mph34%30.18 "HgN/A
10:30 PM64 °FPassing clouds.14 mph34%30.18 "HgN/A
10:00 PM64 °FPassing clouds.12 mph37%30.18 "HgN/A
9:30 PM64 °FPassing clouds.10 mph37%30.18 "HgN/A
9:00 PM66 °FClear.14 mph32%30.18 "Hg10 mi
8:30 PM66 °FPassing clouds.17 mph32%30.18 "HgN/A
8:00 PM66 °FPassing clouds.15 mph32%30.15 "HgN/A
7:30 PM68 °FPassing clouds.14 mph30%30.15 "HgN/A
7:00 PM68 °FPassing clouds.15 mph30%30.15 "HgN/A
Weather by CustomWeather, © 2015

See weather overviewHow to use our weather pages